Temp
-10 -11 -11 -10 -10 -10 -9 -9 -9 -9 -9 -8 -9 -9 -9 -8 -8 -8 -8 -8 -8 -8 -8 -8 -8 -9 -8 -8 -8 -8 -8 -8 -8 -7 -7 -7 -7 -7 -7 -7 -7 -7 -7 -8 -8 -8 -8 -8 -8
-10 -11 -12 -11 -10 -10 -9 -10 -10 -10 -9 -9 -9 -9 -9 -9 -9 -9 -8 -8 -9 -9 -9 -8 -9 -9 -9 -8 -8 -8 -8 -8 -8 -8 -7 -7 -7 -7 -7 -7 -7 -7 -7 -8 -8 -8 -8 -8 -8
-12 -12 -13 -12 -11 -10 -11 -11 -11 -10 -10 -9 -9 -9 -9 -9 -9 -9 -9 -9 -9 -9 -9 -9 -9 -9 -9 -9 -9 -8 -8 -8 -8 -8 -8 -7 -7 -7 -7 -7 -7 -7 -7 -7 -8 -8 -8 -8 -8
-14 -14 -13 -12 -12 -11 -11 -12 -11 -11 -10 -10 -10 -10 -10 -10 -9 -9 -9 -9 -9 -9 -9 -9 -9 -9 -9 -9 -9 -9 -9 -9 -8 -8 -8 -8 -8 -8 -8 -8 -7 -7 -7 -7 -8 -8 -8 -8 -8
-17 -16 -15 -13 -13 -12 -12 -12 -12 -11 -11 -10 -10 -10 -10 -10 -10 -9 -9 -9 -9 -10 -9 -9 -9 -9 -9 -9 -9 -9 -9 -9 -9 -9 -9 -9 -8 -8 -8 -8 -8 -8 -7 -7 -8 -8 -8 -8 -8
-18 -17 -16 -14 -13 -13 -12 -12 -12 -12 -11 -11 -11 -11 -11 -11 -10 -10 -9 -9 -9 -10 -10 -10 -9 -9 -9 -10 -10 -10 -9 -9 -9 -9 -9 -9 -9 -9 -8 -8 -8 -8 -8 -8 -8 -8 -8 -8 -8
-18 -17 -16 -15 -15 -14 -13 -12 -13 -12 -11 -12 -11 -11 -11 -11 -11 -10 -10 -10 -10 -10 -10 -10 -10 -9 -10 -10 -10 -10 -10 -10 -10 -10 -10 -9 -9 -9 -9 -8 -8 -8 -8 -8 -8 -8 -8 -8 -8
-18 -18 -17 -16 -15 -14 -13 -13 -13 -13 -12 -12 -11 -11 -12 -11 -11 -10 -10 -10 -10 -10 -10 -10 -10 -10 -10 -10 -10 -10 -10 -10 -10 -10 -10 -10 -9 -9 -9 -9 -9 -8 -8 -8 -8 -8 -8 -8 -8
-18 -18 -17 -16 -15 -15 -14 -13 -13 -13 -12 -12 -12 -12 -12 -11 -11 -11 -10 -10 -10 -10 -10 -10 -10 -10 -10 -10 -10 -10 -10 -10 -10 -10 -10 -10 -10 -10 -10 -9 -9 -9 -8 -8 -8 -8 -8 -8 -8
-18 -18 -17 -16 -15 -15 -14 -14 -12 -13 -13 -12 -13 -12 -12 -12 -11 -11 -11 -10 -10 -10 -10 -10 -10 -10 -10 -10 -10 -10 -10 -10 -10 -10 -10 -10 -10 -10 -10 -10 -9 -9 -9 -9 -8 -8 -8 -8 -8
-17 -17 -17 -16 -16 -15 -15 -13 -13 -12 -13 -12 -13 -12 -12 -12 -12 -12 -11 -11 -10 -10 -11 -10 -10 -10 -10 -10 -10 -10 -10 -10 -10 -10 -10 -10 -10 -10 -10 -10 -10 -9 -9 -9 -9 -9 -9 -9 -9
-17 -17 -16 -16 -15 -15 -15 -14 -13 -12 -13 -12 -12 -12 -12 -12 -12 -12 -11 -11 -11 -11 -11 -11 -10 -10 -10 -10 -10 -10 -10 -10 -10 -10 -10 -10 -10 -10 -10 -10 -10 -10 -10 -9 -9 -9 -9 -9 -9
-16 -16 -16 -15 -15 -15 -15 -15 -14 -13 -13 -13 -13 -13 -13 -12 -12 -11 -11 -11 -11 -11 -11 -11 -11 -11 -10 -10 -10 -10 -10 -10 -10 -10 -10 -10 -10 -10 -10 -10 -10 -10 -10 -10 -9 -9 -9 -9 -10
-16 -15 -15 -15 -15 -15 -14 -14 -14 -13 -13 -13 -12 -12 -13 -13 -12 -12 -11 -11 -11 -11 -11 -11 -11 -11 -11 -11 -10 -10 -10 -11 -11 -11 -10 -10 -10 -10 -10 -10 -10 -10 -10 -10 -10 -10 -10 -10 -10
-16 -15 -15 -15 -14 -14 -14 -14 -13 -14 -14 -14 -13 -12 -12 -13 -12 -12 -12 -12 -11 -11 -11 -11 -11 -11 -11 -11 -11 -11 -11 -11 -11 -11 -11 -11 -11 -10 -10 -10 -10 -10 -10 -10 -10 -10 -10 -10 -10
-16 -15 -15 -15 -15 -14 -14 -13 -14 -14 -14 -14 -14 -13 -12 -12 -12 -12 -12 -12 -12 -11 -11 -11 -11 -11 -11 -11 -11 -11 -11 -11 -11 -11 -11 -11 -11 -11 -11 -11 -11 -10 -10 -10 -11 -11 -11 -11 -11
-16 -15 -15 -15 -14 -14 -14 -13 -14 -14 -14 -14 -14 -14 -13 -12 -12 -12 -12 -12 -12 -11 -11 -11 -11 -11 -11 -11 -11 -11 -11 -11 -11 -11 -11 -11 -11 -11 -11 -11 -11 -11 -11 -10 -11 -11 -11 -11 -11
-15 -16 -15 -15 -14 -14 -14 -13 -13 -14 -14 -14 -14 -13 -14 -13 -12 -13 -13 -12 -12 -12 -12 -12 -11 -11 -11 -11 -11 -11 -11 -11 -11 -12 -12 -12 -12 -11 -11 -11 -11 -11 -11 -11 -11 -11 -11 -11 -11
-15 -16 -16 -15 -15 -15 -14 -13 -13 -13 -13 -13 -13 -14 -13 -13 -14 -13 -13 -12 -12 -12 -12 -13 -12 -12 -12 -12 -12 -12 -12 -12 -12 -12 -12 -12 -12 -12 -12 -12 -12 -12 -11 -11 -11 -11 -12 -12 -12
-14 -15 -16 -16 -15 -15 -14 -14 -13 -14 -13 -13 -13 -13 -13 -14 -13 -14 -14 -13 -12 -12 -12 -13 -13 -13 -12 -12 -12 -12 -12 -12 -12 -12 -12 -12 -12 -12 -12 -12 -12 -12 -12 -11 -11 -12 -12 -12 -12
-14 -14 -15 -15 -16 -15 -15 -15 -14 -14 -14 -14 -14 -13 -13 -13 -13 -13 -13 -13 -12 -12 -12 -13 -13 -13 -13 -13 -13 -12 -12 -12 -13 -13 -13 -13 -13 -12 -13 -12 -12 -12 -12 -12 -12 -12 -12 -12 -12
-15 -14 -14 -15 -15 -16 -16 -15 -15 -14 -14 -14 -14 -14 -13 -14 -14 -13 -14 -13 -13 -13 -13 -13 -13 -13 -13 -14 -13 -13 -13 -13 -13 -13 -13 -13 -13 -13 -13 -13 -13 -13 -13 -12 -12 -12 -12 -13 -13
-15 -15 -15 -15 -15 -15 -16 -16 -15 -15 -15 -14 -14 -14 -14 -14 -14 -14 -14 -14 -14 -14 -13 -13 -14 -13 -14 -14 -13 -14 -14 -13 -13 -14 -13 -13 -13 -13 -13 -13 -13 -13 -13 -13 -12 -13 -13 -13 -13
-16 -15 -16 -15 -15 -14 -16 -16 -13 -16 -16 -15 -15 -15 -15 -15 -15 -15 -14 -15 -15 -14 -13 -13 -14 -14 -14 -14 -14 -13 -14 -14 -14 -14 -13 -14 -14 -14 -14 -14 -13 -13 -13 -13 -13 -13 -13 -13 -13
-16 -16 -16 -16 -15 -15 -16 -15 -15 -17 -16 -16 -16 -16 -15 -15 -15 -15 -15 -15 -15 -15 -15 -15 -14 -14 -14 -14 -14 -14 -14 -14 -14 -14 -14 -14 -14 -14 -14 -14 -14 -13 -13 -13 -13 -13 -13 -13 -14
-17 -16 -17 -17 -16 -15 -16 -15 -16 -16 -17 -16 -16 -16 -16 -16 -16 -15 -15 -15 -16 -16 -15 -15 -14 -15 -14 -15 -15 -15 -15 -15 -15 -15 -15 -15 -15 -14 -14 -14 -14 -14 -14 -14 -13 -14 -14 -14 -14
-17 -17 -17 -17 -16 -16 -15 -16 -16 -17 -17 -17 -17 -17 -17 -17 -16 -16 -16 -15 -15 -16 -15 -15 -14 -15 -15 -15 -15 -15 -15 -15 -16 -15 -15 -15 -15 -15 -14 -14 -14 -14 -14 -14 -14 -14 -14 -14 -15
-18 -18 -17 -17 -17 -17 -16 -15 -16 -18 -18 -18 -18 -18 -17 -18 -17 -17 -16 -17 -16 -16 -15 -15 -15 -15 -15 -15 -15 -15 -15 -15 -15 -15 -15 -15 -15 -15 -15 -15 -15 -14 -14 -14 -14 -15 -15 -15 -15
-18 -18 -18 -18 -17 -17 -17 -15 -17 -18 -17 -18 -18 -19 -18 -18 -18 -17 -16 -16 -17 -16 -16 -15 -16 -16 -15 -14 -14 -14 -14 -15 -15 -15 -14 -15 -15 -15 -15 -15 -15 -15 -15 -15 -15 -16 -16 -16 -16
-19 -19 -18 -18 -18 -18 -18 -15 -18 -18 -18 -18 -19 -19 -18 -18 -18 -17 -17 -16 -16 -16 -16 -16 -16 -16 -16 -15 -15 -15 -15 -16 -15 -14 -15 -15 -15 -15 -16 -15 -15 -16 -16 -16 -16 -16 -16 -17 -17
Height
5818 5822 5825 5828 5832 5830 5835 5840 5842 5845 5848 5850 5853 5856 5858 5860 5863 5867 5866 5869 5871 5874 5875 5876 5878 5880 5880 5880 5880 5880 5880 5879 5880 5879 5879 5878 5877 5876 5874 5873 5872 5871 5870 5869 5867 5866 5865 5864 5862
5806 5808 5812 5815 5820 5821 5830 5834 5837 5839 5842 5845 5849 5850 5853 5856 5859 5862 5864 5866 5868 5871 5873 5875 5877 5878 5880 5880 5880 5880 5880 5879 5879 5878 5878 5877 5876 5875 5874 5873 5872 5871 5870 5869 5868 5866 5865 5863 5861
5788 5791 5798 5801 5807 5813 5821 5827 5828 5833 5836 5839 5844 5846 5849 5852 5855 5858 5861 5863 5866 5869 5871 5873 5875 5876 5878 5879 5879 5880 5880 5879 5878 5878 5877 5877 5876 5875 5874 5873 5872 5871 5870 5869 5867 5866 5864 5862 5860
5765 5771 5780 5787 5796 5805 5814 5819 5820 5826 5831 5833 5837 5841 5845 5847 5852 5855 5857 5860 5863 5866 5869 5871 5873 5874 5876 5877 5878 5878 5879 5879 5878 5878 5877 5876 5875 5874 5873 5872 5871 5870 5869 5867 5866 5864 5862 5860 5857
5746 5753 5762 5774 5785 5794 5805 5810 5813 5819 5825 5828 5832 5835 5840 5842 5846 5850 5853 5856 5859 5862 5865 5868 5870 5873 5874 5875 5876 5877 5877 5877 5877 5877 5876 5875 5874 5873 5872 5871 5870 5869 5868 5866 5864 5863 5860 5858 5855
5731 5741 5749 5762 5776 5785 5797 5802 5806 5813 5818 5823 5826 5830 5834 5837 5840 5845 5849 5852 5855 5858 5862 5865 5867 5870 5872 5873 5874 5875 5876 5876 5876 5875 5875 5874 5873 5872 5871 5870 5869 5868 5866 5865 5863 5861 5859 5856 5853
5724 5732 5743 5755 5767 5777 5789 5796 5799 5806 5811 5815 5821 5824 5829 5832 5835 5840 5844 5848 5851 5854 5858 5861 5864 5867 5869 5871 5872 5874 5875 5875 5874 5874 5874 5873 5871 5871 5869 5868 5867 5866 5864 5863 5861 5858 5856 5853 5851
5719 5725 5736 5746 5757 5772 5781 5788 5792 5798 5804 5809 5814 5818 5823 5828 5831 5834 5838 5843 5847 5850 5853 5857 5861 5864 5866 5868 5870 5871 5873 5873 5873 5873 5872 5871 5870 5869 5867 5866 5865 5864 5862 5861 5858 5856 5854 5852 5849
5716 5722 5730 5742 5753 5764 5773 5781 5786 5792 5798 5803 5808 5813 5818 5821 5825 5829 5833 5838 5842 5846 5849 5853 5857 5860 5862 5865 5867 5868 5870 5871 5871 5871 5870 5869 5868 5868 5866 5864 5863 5862 5860 5859 5856 5854 5852 5850 5848
5715 5720 5728 5732 5743 5754 5759 5769 5778 5783 5791 5797 5802 5807 5811 5815 5819 5823 5827 5832 5836 5841 5846 5848 5852 5856 5858 5861 5863 5865 5866 5868 5868 5868 5868 5868 5867 5866 5865 5863 5861 5860 5858 5856 5854 5852 5850 5847 5845
5715 5719 5722 5730 5739 5748 5754 5759 5768 5775 5784 5791 5797 5802 5806 5809 5813 5817 5821 5825 5830 5834 5839 5843 5846 5851 5854 5856 5859 5861 5863 5864 5865 5865 5866 5865 5864 5863 5863 5861 5859 5857 5856 5854 5851 5849 5847 5845 5842
5716 5719 5724 5732 5739 5746 5753 5757 5763 5764 5776 5783 5790 5795 5800 5805 5808 5811 5814 5818 5823 5828 5832 5837 5841 5844 5848 5851 5854 5857 5859 5860 5861 5862 5862 5862 5861 5861 5860 5859 5857 5855 5853 5851 5848 5846 5844 5842 5840
5717 5721 5724 5730 5739 5744 5751 5755 5758 5762 5764 5773 5781 5788 5793 5798 5803 5806 5809 5812 5816 5821 5826 5831 5835 5839 5843 5846 5849 5852 5854 5855 5856 5857 5858 5858 5858 5857 5857 5856 5855 5852 5850 5848 5846 5843 5841 5839 5837
5718 5720 5724 5729 5736 5741 5746 5751 5755 5760 5758 5768 5773 5779 5785 5790 5795 5799 5803 5807 5811 5815 5820 5824 5828 5833 5836 5840 5843 5846 5848 5850 5852 5853 5853 5853 5854 5853 5853 5852 5851 5849 5847 5845 5843 5840 5838 5836 5834
5718 5721 5724 5727 5731 5738 5742 5747 5754 5755 5755 5760 5767 5771 5776 5780 5788 5793 5795 5799 5802 5805 5810 5815 5820 5825 5829 5832 5837 5840 5842 5845 5846 5848 5848 5848 5848 5849 5848 5847 5847 5845 5843 5842 5840 5837 5835 5833 5831
5716 5718 5721 5724 5727 5732 5737 5750 5744 5749 5748 5754 5758 5766 5769 5772 5778 5783 5788 5792 5796 5799 5804 5808 5812 5817 5821 5825 5829 5833 5836 5838 5840 5841 5843 5843 5843 5843 5843 5842 5841 5840 5840 5838 5836 5834 5831 5829 5827
5712 5714 5716 5719 5722 5726 5730 5736 5734 5740 5742 5745 5753 5760 5765 5768 5771 5775 5780 5784 5789 5793 5797 5800 5805 5809 5813 5817 5821 5825 5828 5831 5833 5834 5836 5837 5837 5838 5838 5837 5836 5835 5835 5834 5832 5830 5828 5826 5824
5707 5709 5712 5714 5716 5718 5721 5726 5732 5733 5736 5740 5744 5751 5758 5763 5767 5770 5774 5776 5780 5783 5787 5792 5796 5801 5805 5809 5814 5817 5821 5823 5825 5827 5829 5830 5831 5832 5832 5832 5831 5830 5830 5829 5828 5826 5824 5822 5820
5701 5702 5705 5707 5706 5709 5714 5718 5722 5726 5731 5733 5738 5742 5749 5756 5758 5760 5767 5770 5773 5775 5778 5784 5789 5794 5798 5803 5807 5810 5812 5814 5817 5819 5821 5823 5824 5825 5825 5826 5825 5825 5824 5823 5822 5820 5819 5817 5815
5699 5697 5698 5700 5698 5701 5703 5705 5709 5715 5722 5726 5730 5734 5739 5743 5750 5753 5758 5763 5764 5768 5770 5775 5781 5786 5789 5793 5796 5800 5803 5807 5810 5812 5814 5815 5816 5818 5818 5819 5819 5818 5817 5817 5815 5814 5813 5812 5810
5696 5693 5691 5692 5690 5693 5694 5698 5703 5707 5712 5714 5719 5724 5727 5736 5743 5746 5749 5753 5755 5758 5763 5766 5772 5776 5781 5784 5788 5792 5796 5799 5802 5803 5805 5808 5809 5810 5811 5811 5811 5811 5810 5809 5808 5807 5807 5806 5804
5691 5689 5688 5686 5685 5686 5688 5685 5694 5700 5703 5707 5712 5714 5719 5721 5732 5734 5740 5744 5749 5752 5754 5756 5759 5765 5770 5775 5780 5784 5787 5790 5792 5794 5798 5800 5801 5803 5803 5803 5803 5803 5803 5802 5801 5800 5799 5798 5796
5688 5685 5683 5682 5680 5677 5682 5677 5687 5689 5693 5699 5702 5704 5706 5709 5714 5722 5728 5734 5737 5740 5744 5747 5750 5755 5760 5765 5770 5774 5778 5781 5784 5787 5789 5790 5793 5794 5795 5795 5795 5795 5795 5794 5792 5792 5791 5790 5788
5681 5680 5678 5677 5676 5674 5673 5671 5670 5677 5684 5683 5685 5689 5693 5697 5700 5707 5714 5720 5726 5730 5736 5739 5742 5747 5750 5755 5760 5764 5768 5772 5775 5778 5780 5782 5783 5784 5785 5786 5786 5786 5786 5785 5784 5783 5782 5781 5779
5674 5674 5671 5670 5668 5669 5666 5664 5665 5665 5663 5666 5669 5672 5676 5680 5685 5691 5698 5707 5713 5719 5726 5729 5734 5739 5742 5746 5751 5755 5759 5763 5766 5768 5771 5772 5774 5775 5777 5777 5777 5777 5776 5775 5774 5773 5772 5770 5769
5666 5667 5665 5659 5660 5661 5659 5659 5659 5655 5650 5650 5653 5659 5660 5666 5669 5676 5683 5692 5700 5707 5714 5720 5724 5730 5731 5736 5740 5745 5749 5753 5756 5758 5761 5762 5764 5766 5766 5767 5767 5767 5766 5765 5763 5762 5761 5760 5758
5659 5658 5654 5652 5651 5649 5652 5653 5651 5645 5642 5640 5641 5644 5648 5650 5656 5661 5668 5678 5686 5694 5703 5710 5715 5718 5715 5721 5726 5731 5736 5741 5745 5748 5750 5752 5754 5755 5756 5757 5756 5755 5755 5754 5753 5752 5750 5748 5747
5648 5647 5647 5644 5640 5638 5644 5642 5642 5637 5633 5632 5632 5631 5636 5640 5643 5649 5655 5662 5672 5680 5687 5696 5704 5708 5710 5715 5717 5719 5723 5729 5733 5736 5739 5740 5742 5744 5745 5745 5744 5744 5743 5742 5742 5740 5739 5737 5735
5634 5636 5638 5635 5633 5631 5630 5634 5634 5630 5626 5624 5624 5623 5627 5631 5635 5640 5646 5651 5656 5666 5673 5681 5690 5696 5700 5706 5708 5710 5712 5715 5719 5723 5725 5726 5729 5731 5732 5732 5733 5732 5732 5731 5730 5729 5727 5726 5724
5622 5625 5627 5624 5626 5621 5621 5626 5625 5624 5621 5619 5618 5618 5620 5622 5624 5628 5635 5640 5645 5652 5660 5668 5675 5682 5687 5692 5690 5694 5699 5703 5708 5709 5710 5711 5716 5717 5719 5721 5721 5721 5720 5720 5719 5717 5716 5714 5711
Wind_Speed
52 49 48 47 46 46 42 37 31 31 33 33 29 27 25 26 26 27 26 23 20 18 18 16 14 11 8 5 5 5 6 5 4 4 5 8 10 11 11 14 15 16 17 18 18 19 19 21 23
62 58 54 53 53 50 44 37 33 33 33 34 32 30 27 28 27 27 27 26 24 22 20 18 16 13 9 6 5 5 7 6 4 3 4 6 9 10 11 12 13 13 15 16 17 18 19 20 22
69 66 59 58 57 54 45 35 34 34 33 34 33 33 30 28 28 29 30 28 25 24 22 20 18 16 11 8 6 6 7 8 5 5 4 5 7 8 9 10 11 12 13 15 16 17 18 19 21
68 68 66 63 59 55 47 38 38 34 34 34 34 35 33 31 31 32 32 31 29 28 25 23 20 17 14 11 8 6 7 8 9 5 5 5 6 7 9 10 10 10 12 14 16 18 19 20 23
57 65 66 66 61 57 49 42 41 36 34 33 32 33 32 32 33 33 35 34 32 31 29 26 23 19 17 13 9 6 5 7 9 10 5 5 5 6 7 8 9 10 11 13 15 17 20 21 24
47 58 65 65 63 57 50 45 42 38 34 33 32 31 33 33 34 35 37 37 35 34 32 28 26 22 19 14 10 6 4 4 7 9 10 6 5 5 6 7 9 11 12 13 15 18 20 23 25
39 51 60 60 59 55 50 46 43 41 38 34 32 31 32 32 33 36 38 40 38 36 34 31 29 25 21 17 12 8 4 2 4 8 11 11 7 7 6 7 9 11 13 14 16 18 21 24 26
31 43 56 61 60 52 50 47 46 43 40 38 35 34 32 30 32 36 39 41 39 38 37 34 32 28 24 20 16 11 7 3 1 5 9 13 12 9 8 8 8 10 13 16 16 18 20 23 25
23 37 51 57 57 53 48 48 47 44 42 39 35 30 28 31 31 34 39 41 40 40 40 36 33 30 26 23 19 16 12 8 4 5 8 12 14 12 11 8 9 10 13 15 17 17 19 22 23
18 29 44 57 58 56 52 49 49 48 45 41 37 32 32 31 29 29 37 41 43 43 41 39 36 34 30 26 22 19 16 13 8 7 9 10 12 16 14 12 10 11 13 15 17 17 18 20 22
14 25 42 52 53 55 56 49 49 51 48 44 39 35 34 33 31 29 33 41 44 45 45 43 40 36 33 30 26 22 20 17 13 10 10 11 12 15 16 15 15 13 15 16 17 17 17 17 19
12 21 34 46 49 51 53 51 51 49 52 48 42 38 38 36 33 31 32 39 43 46 46 46 44 41 38 34 30 26 22 19 16 15 14 16 15 15 17 19 18 17 16 17 17 16 17 16 18
11 19 29 39 47 47 49 52 56 49 50 53 48 44 42 41 37 33 33 37 43 46 47 47 46 44 41 37 34 30 26 22 20 20 18 18 20 17 18 20 22 21 19 18 17 17 17 16 17
11 18 27 34 41 48 48 50 54 55 53 51 50 53 47 45 42 39 36 34 39 43 46 48 48 47 45 41 38 35 31 27 25 26 24 21 23 21 20 19 23 23 22 20 17 17 16 17 18
16 18 24 32 36 46 49 51 50 52 56 52 55 51 57 48 45 41 40 38 40 43 46 47 50 50 49 45 42 39 36 32 30 31 27 25 25 25 21 20 22 23 24 22 18 17 17 18 18
18 23 25 28 34 38 49 49 52 51 54 54 55 58 53 51 50 48 44 43 41 42 44 46 48 50 50 48 46 43 40 38 33 31 31 28 27 28 24 21 21 23 24 24 19 18 18 19 19
19 24 29 32 34 37 42 53 56 54 54 52 52 51 55 54 53 54 52 48 44 42 43 44 44 48 49 49 47 45 42 40 35 36 33 32 31 32 27 24 21 22 24 25 20 18 18 18 19
18 22 28 34 38 40 43 48 55 58 57 56 53 54 55 53 42 54 54 49 50 48 43 41 42 44 46 48 47 45 43 40 38 36 34 36 34 34 29 26 23 23 24 25 22 18 18 19 19
15 22 25 33 41 44 44 47 49 57 60 60 57 56 54 55 56 50 54 53 52 55 48 42 37 36 39 41 43 44 44 42 40 38 37 34 35 33 30 28 25 25 26 26 24 21 19 20 21
17 16 25 30 41 46 49 54 55 52 57 60 62 62 58 56 53 58 52 57 52 50 49 47 43 39 36 39 41 44 43 41 39 39 39 38 36 34 32 30 28 28 27 27 25 25 23 23 24
17 15 19 29 37 41 49 51 53 53 51 53 57 62 64 61 55 56 55 58 61 49 48 45 39 42 48 37 37 39 40 39 38 40 41 38 36 35 35 33 31 30 30 29 28 28 27 27 28
18 16 16 21 31 38 40 52 50 53 54 55 53 55 60 64 58 59 56 60 63 53 49 51 49 43 44 50 47 40 36 37 38 39 36 37 39 39 37 35 34 34 33 32 31 32 32 31 31
21 19 17 17 20 28 36 45 36 49 54 54 53 54 54 58 59 59 57 52 57 54 53 53 49 50 46 45 43 42 45 45 44 40 40 42 41 37 38 37 37 37 36 35 34 36 36 35 35
24 21 22 21 21 15 18 29 24 38 45 52 58 58 56 55 58 59 62 57 55 56 63 67 53 51 48 47 45 43 43 44 44 43 42 41 38 40 40 39 38 39 38 38 38 40 40 39 39
26 25 24 25 25 22 22 21 20 21 35 53 55 61 62 60 58 60 63 60 56 61 55 57 50 53 50 47 45 44 42 42 43 41 40 42 48 43 40 40 40 41 41 42 42 43 43 43 43
31 29 28 29 27 25 26 20 15 21 32 40 55 52 59 60 56 58 64 65 62 66 63 64 57 68 60 51 45 44 42 42 42 43 46 42 40 41 41 41 42 43 44 45 46 46 47 46 45
34 31 32 34 33 30 25 20 13 20 28 40 44 55 51 56 59 52 57 66 68 65 62 60 61 70 57 58 53 51 45 42 41 42 41 42 42 42 43 44 45 48 49 49 49 50 50 48 48
39 38 35 37 38 36 27 26 18 21 29 31 37 46 53 48 52 55 52 57 66 67 65 64 64 60 62 61 56 53 57 53 51 50 48 48 48 46 47 50 51 52 52 52 52 52 50 50 50
45 42 38 40 40 38 34 25 18 19 26 24 25 33 44 45 46 50 51 55 61 65 68 66 63 62 60 66 67 53 46 41 46 44 51 52 53 52 52 54 55 55 55 53 52 51 50 50 51
49 44 42 44 41 41 39 24 22 16 19 20 21 28 35 42 43 45 46 50 58 62 65 67 66 64 65 66 59 51 45 52 54 48 60 59 59 48 52 56 56 55 53 53 51 50 51 51 52
Wind_Direction
252 243 236 237 234 233 234 233 230 229 228 223 217 215 219 211 209 209 203 190 188 191 183 183 181 179 172 147 104 84 72 66 62 66 65 68 68 62 65 63 53 44 38 36 34 28 20 13 6
249 244 234 231 233 232 229 228 229 227 226 225 219 216 215 214 211 208 203 194 187 185 188 187 183 182 175 153 118 87 68 68 75 72 68 68 70 64 59 56 50 38 32 29 28 21 15 8 2
245 240 232 229 228 229 227 223 225 226 224 224 218 218 216 212 211 208 206 196 192 189 189 190 188 185 178 167 134 100 73 60 64 78 69 65 64 60 54 48 42 32 24 20 17 14 9 2 358
238 233 229 227 226 226 224 221 220 220 223 222 217 216 217 215 210 208 206 199 193 192 194 193 193 188 183 173 149 115 81 60 53 55 65 58 51 48 44 38 33 24 16 10 9 6 2 358 354
237 227 223 221 222 222 220 216 220 215 218 220 217 214 215 217 212 207 207 202 195 195 196 196 195 193 190 179 161 134 94 58 43 39 33 44 42 40 39 31 22 15 10 6 8 5 360 356 351
235 225 219 216 220 218 217 216 215 213 212 216 215 213 212 214 215 209 208 205 200 198 199 199 199 198 196 188 177 160 123 66 33 24 19 7 10 14 14 14 13 7 5 1 4 3 358 355 352
237 223 219 213 217 215 214 214 209 211 206 212 213 212 208 210 214 211 210 208 205 200 203 202 202 203 202 198 193 190 182 106 29 15 7 359 345 354 344 344 354 357 356 353 356 356 354 354 353
238 224 214 213 211 214 212 213 207 209 209 209 211 211 208 208 211 213 211 210 207 205 205 207 206 206 206 207 205 210 217 221 318 355 0 351 350 347 347 331 338 346 346 344 346 345 347 350 350
229 222 215 211 211 210 209 213 212 209 208 209 210 209 209 212 210 211 213 211 210 210 208 209 211 212 211 214 216 220 227 238 262 316 333 345 345 343 353 340 329 335 337 336 340 338 340 345 347
222 220 214 213 208 208 209 208 216 205 208 209 209 207 208 211 210 211 212 211 210 214 213 213 214 216 215 218 222 227 233 242 256 287 304 319 335 340 340 349 333 328 330 331 334 335 336 340 344
218 217 215 211 210 209 215 206 212 207 207 210 207 208 212 212 210 213 214 211 212 211 214 215 216 219 220 221 226 231 236 245 253 271 289 304 313 332 340 337 341 334 330 330 334 334 334 338 341
221 215 216 213 213 212 214 219 209 206 205 208 208 208 214 216 214 214 214 213 212 214 214 217 218 219 221 223 228 233 241 244 252 261 275 292 300 316 325 336 336 335 331 333 337 333 332 334 337
222 214 212 216 215 217 217 219 224 221 203 207 205 207 212 216 215 217 218 215 214 215 216 219 222 223 224 226 230 235 243 247 256 264 268 281 291 296 308 322 328 335 331 330 334 333 329 327 330
230 213 211 217 217 219 221 222 223 228 226 209 210 209 210 217 215 213 218 220 216 217 219 220 222 225 227 229 231 236 241 245 249 253 265 273 283 285 294 308 319 327 330 326 331 331 325 321 323
228 224 216 217 220 220 224 223 224 231 236 236 216 216 213 211 216 216 217 217 216 215 218 220 223 225 227 229 233 238 241 243 249 254 262 268 279 281 285 297 310 317 325 322 328 326 320 319 320
238 225 226 223 223 221 225 220 231 229 239 237 238 219 220 216 212 215 218 218 219 219 218 221 222 225 228 231 234 237 241 244 242 250 257 265 271 279 280 288 301 309 316 319 321 324 320 318 319
242 233 226 227 229 227 226 224 227 231 234 239 238 241 222 223 226 221 218 216 218 219 220 222 225 227 228 231 233 235 238 242 242 248 256 257 269 273 274 282 294 300 307 314 314 319 317 313 316
260 244 236 232 230 232 230 228 228 232 234 236 239 238 240 229 228 228 230 219 217 217 215 218 222 227 230 232 235 235 237 239 240 244 253 253 262 265 269 277 288 294 299 305 309 311 313 306 310
290 248 240 237 236 234 233 231 230 231 235 238 239 241 240 240 238 236 231 230 233 224 212 218 221 227 230 233 235 235 236 237 238 242 245 252 260 260 266 274 285 289 291 299 306 302 302 300 300
321 275 245 241 243 238 233 231 229 231 232 236 239 240 242 241 244 252 247 237 237 231 225 220 225 223 229 230 231 233 235 237 239 241 245 248 252 259 265 272 281 286 288 294 301 301 294 293 296
325 306 263 245 247 246 244 241 238 235 234 235 237 239 242 242 242 245 248 243 234 225 229 218 220 225 223 229 231 234 236 237 238 239 241 247 253 259 265 271 279 284 285 289 296 300 293 288 289
314 317 304 270 257 255 252 251 244 241 239 238 239 241 241 246 239 242 241 244 242 228 223 221 217 218 219 227 234 231 234 236 239 243 243 249 256 258 264 271 278 283 284 287 292 297 296 289 289
304 303 300 294 284 273 260 263 249 241 242 241 239 242 242 242 243 239 242 240 243 238 220 228 220 221 220 225 230 232 235 240 247 245 247 247 251 257 264 270 277 281 283 287 292 296 295 288 288
291 296 293 291 290 293 287 275 289 254 242 240 240 238 241 242 240 236 236 236 238 242 247 234 222 223 219 222 225 229 232 234 238 239 242 246 250 258 264 270 276 279 283 287 292 294 292 289 289
282 288 292 286 283 288 283 281 309 279 252 234 235 238 237 237 239 235 233 232 235 228 241 224 230 228 223 224 225 227 229 232 237 237 240 244 252 259 263 269 273 277 282 286 289 291 289 287 288
274 279 286 284 285 288 282 295 292 267 252 245 233 234 237 236 235 236 232 229 227 231 235 244 250 241 225 220 223 227 229 232 235 241 249 252 254 257 263 268 274 278 281 285 287 288 287 286 287
272 273 272 280 284 284 292 291 289 276 255 249 242 235 235 235 234 233 235 232 229 227 231 232 236 230 214 216 220 224 227 230 237 241 244 250 255 260 265 270 274 278 282 283 284 285 285 286 287
266 264 269 276 281 283 286 288 284 272 271 264 256 240 231 233 234 233 234 233 233 230 227 230 235 243 248 252 226 224 230 234 235 241 245 250 256 259 266 272 275 277 279 281 282 282 283 284 286
260 262 266 270 274 282 287 284 300 291 276 272 259 243 233 233 232 235 238 235 230 233 233 230 231 236 239 240 249 253 231 251 256 247 250 249 252 260 266 271 274 276 278 278 279 280 282 283 285
258 260 263 268 275 271 276 279 296 276 278 265 251 244 236 236 232 230 235 237 233 231 232 234 234 232 239 243 251 255 250 259 260 264 255 242 255 260 267 271 272 273 274 276 278 280 281 283 286